Location: Buch
(48.9087°N, 10.1367°E)
Time: 13:27:43
(UTC+00:00)

Daily predictions for brighter satellites

Satellite Brightness Start Highest point End
(mag) Time Altitude Azimuth Time Altitude Azimuth Time Altitude Azimuth
CZ-2C R/B 3.9 15:54:01 10° N 15:58:55 39° WNW 16:03:43 10° SW
Cosmos 1943 4.1 15:58:19 10° NNW 16:03:08 28° NE 16:07:56 10° ESE
Cosmos 1607 4.4 15:57:17 10° S 16:03:16 47° ESE 16:09:23 10° NE
Cosmos 1544 3.3 16:01:20 10° N 16:04:25 37° ENE 16:07:28 10° SE
Cosmos 1634 Rocket 4.0 15:58:32 10° N 16:04:53 78° E 16:11:13 10° SSE
Cosmos 1269 Rocket 4.1 16:00:15 10° NNW 16:05:28 56° ENE 16:10:39 10° SE
PSLV R/B 3.9 16:01:50 10° S 16:06:03 72° WSW 16:10:21 10° NNW
SL-08 RB Rocket 3.8 16:02:32 10° SSE 16:07:00 85° WSW 16:11:32 10° NNW
Cosmos 614 Rocket 3.9 16:02:53 10° NNW 16:08:08 75° ENE 16:13:19 10° SSE
BREEZE-M DEB (TANK) 3.2 16:05:24 10° SW 16:08:31 72° SE 16:19:06 10° ENE
Cosmos 1076 Rocket 3.9 16:05:08 10° N 16:09:17 41° ENE 16:13:24 10° SE
Tiangong 0.8 16:08:52 10° SW 16:10:44 15° SSW 16:12:36 10° SSE
NOSS 3-4 (A) 3.9 16:05:00 10° NW 16:11:52 87° NE 16:19:49 10° SE
Meteor 2-16 Rocket 4.5 16:05:47 10° S 16:11:54 81° E 16:18:03 10° NNE
NOSS 3-4 (C) 3.9 16:05:08 10° NW 16:11:59 88° NE 16:19:49 10° SE
SAR-Lupe-2 3.5 16:08:33 10° SSE 16:12:07 79° ENE 16:15:43 10° NNW
NOSS 3-3 (C) 4.2 16:08:07 10° SW 16:13:42 67° NW 16:20:19 10° NE
NOSS 3-3 (A) 4.2 16:08:32 10° SW 16:14:04 66° NW 16:20:39 10° NE
Cosmos 2297 Rocket 2.8 16:09:04 10° SW 16:14:37 57° WNW 16:20:13 10° NNE
ERS-2 2.4 16:12:36 10° S 16:15:29 55° WSW 16:18:24 10° NNW
Cosmos 1953 Rocket 3.6 16:11:24 10° N 16:15:54 83° E 16:20:19 10° S
Cosmos 2219 3.3 16:11:03 10° SSW 16:16:33 61° ESE 16:22:07 10° NNE
Cosmos 2142 Rocket 4.5 16:11:56 10° N 16:18:01 60° ENE 16:24:04 10° SSE
Cosmos 44 3.5 16:13:19 10° NW 16:18:44 65° NE 16:23:55 10° SE
Cosmos 1125 Rocket 4.5 16:14:19 10° SW 16:19:20 46° WNW 16:24:26 10° NNE
DMSP B5D2-2 4.2 16:17:10 10° NNE 16:22:20 59° E 16:27:28 10° S
USA 234 3.8 16:16:24 10° ENE 16:22:39 45° SE 16:28:51 10° SSW
Cosmos 1602 4.4 16:19:54 10° N 16:23:12 29° ENE 16:26:28 10° SE
Cosmos 1862 3.5 16:20:07 10° NNW 16:24:01 73° W 16:27:54 10° S
USA 308 3.0 16:22:53 10° WNW 16:24:49 29° SW 16:26:28 10° SSE
USA 307 2.8 16:24:09 10° WNW 16:27:58 53° NNE 16:31:19 12° E
Cosmos 1666 2.9 16:24:43 10° N 16:28:03 38° ENE 16:31:22 10° SE
ISS -3.8 16:28:49 10° WNW 16:32:11 90° NE 16:35:28 11° ESE
Cosmos 2279 Rocket 4.0 16:26:43 10° N 16:33:01 83° E 16:39:15 10° S
Aureole 3 Rocket 3.8 16:28:54 10° NNW 16:33:54 57° W 16:37:34 10° S
Cosmos 2082 3.9 16:28:31 10° S 16:33:56 53° ESE 16:39:24 10° NE
AQUARIUS 4.1 16:30:41 10° SSE 16:35:05 63° ENE 16:39:32 10° N
COSMO-SKYMED 1 3.8 16:34:42 14° NE 16:37:11 22° E 16:40:33 10° SE
Cosmos 1606 4.3 16:34:10 10° SW 16:37:30 33° WNW 16:40:51 10° N
ATLAS CENTAUR R/B 2.5 16:34:50 10° NW 16:38:42 63° NNE 16:46:09 10° ESE
Cosmos 2058 Rocket 3.0 16:34:43 10° S 16:39:10 78° E 16:43:36 10° NNE
YAOGAN 11 4.3 16:41:00 10° NNE 16:45:33 77° WNW 16:50:06 10° SSW
Cosmos 405 Rocket 3.0 16:42:25 10° SSW 16:46:11 68° WNW 16:50:01 10° N
Helios 1A 3.4 16:44:12 11° NNE 16:47:56 39° E 16:51:50 10° SSE
Cosmos 1140 Rocket 3.7 16:44:46 10° NNW 16:49:48 46° ENE 16:54:45 10° SE
SMAP 3.4 16:48:42 10° S 16:53:20 69° WSW 16:58:00 10° NNW
USA 306 0.9 16:51:25 10° WNW 16:53:39 86° NNE 16:54:02 54° ESE
Nadezhda 4 Rocket 4.1 16:48:20 10° SSE 16:54:16 53° E 17:00:13 10° NNE
NOSS 8 (A) 4.3 16:51:58 10° SSW 16:55:45 66° SE 16:57:08 30° NE
CZ-4B R/B 4.1 16:58:57 24° ENE 16:58:57 24° ENE 17:02:14 10° N
Cosmos 1500 3.5 16:55:24 10° NNW 16:58:54 63° W 17:02:23 10° S
Meteor 1-20 Rocket 4.2 16:53:55 10° N 16:59:23 56° ENE 17:04:55 10° SSE
Cosmos-2242 3.2 16:57:26 10° SSE 17:01:36 48° E 17:05:03 14° NNE
Cosmos 1437 Rocket 4.3 16:59:40 10° NNW 17:03:06 37° W 17:06:34 10° SSW
NOAA 6 4.0 17:01:54 10° SSE 17:06:58 63° ENE 17:12:03 10° N
Cosmos 2263 Rocket 2.1 17:02:06 10° SSW 17:07:39 82° ESE 17:12:14 16° NNE
USA 276 3.2 17:06:32 10° SSW 17:08:15 22° SSE 17:08:15 22° SSE
SL-8 R/B 3.9 17:04:12 10° W 17:08:58 70° SSW 17:12:00 22° ESE
Cosmos 1844 Rocket 4.0 17:05:37 10° SE 17:08:55 20° ESE 17:08:55 20° ESE
Cosmos 2227 Rocket 3.3 17:05:16 10° WSW 17:10:34 40° NW 17:15:54 10° NNE
Cosmos 2151 4.5 17:06:43 10° NNW 17:10:42 39° W 17:14:39 10° SSW
RESURS DK-1 4.4 17:08:04 10° N 17:09:16 14° NNE 17:09:16 14° NNE
CZ-4 R/B 4.3 17:13:30 10° SSE 17:17:33 68° ENE 17:21:38 10° N
YAOGAN 1 3.5 17:19:24 29° NE 17:19:24 29° NE 17:22:12 10° N
Cosmos 1603 3.7 17:14:40 10° NNW 17:20:21 61° ENE 17:25:56 10° SE
Cosmos 1812 2.4 17:17:17 10° S 17:20:56 71° E 17:22:20 35° NNE
Cosmos 2251 Rocket 3.5 17:16:37 10° NNW 17:21:57 66° ENE 17:27:17 10° SSE
CZ-4B R/B 3.6 17:17:35 10° S 17:22:42 77° WSW 17:27:41 10° NNW
SKYMED 2 3.5 17:23:18 27° NNE 17:25:32 63° ESE 17:29:51 10° S
Cosmos 407 Rocket 3.3 17:21:28 10° NNW 17:26:38 67° ENE 17:31:44 10° SSE
USA 305 2.5 17:24:03 10° WNW 17:27:55 87° NNE 17:28:38 57° ESE
ATLAS 2AS CENTAUR R/B 3.0 17:21:17 10° NW 17:27:57 44° NE 17:30:16 33° ENE
JB-3 4.5 17:30:55 49° SE 17:30:55 49° SE 17:34:14 10° S
Lacrosse 4 Rocket 1.3 17:27:54 10° NNW 17:32:17 88° NE 17:34:32 27° SSE
SL-16 R/B 4.3 17:28:28 10° NW 17:33:11 28° WSW 17:37:53 10° SSW
TRAILBLAZER 4.5 17:29:09 10° SSW 17:33:44 78° SE 17:34:57 49° NE
Cosmos 1782 3.6 17:35:05 10° S 17:37:38 37° SSE 17:37:38 37° SSE
Cosmos 1818 3.8 17:34:50 10° S 17:39:58 45° ESE 17:40:24 44° ESE
Meteor 2-2 Rocket 4.2 17:36:10 10° S 17:41:53 78° E 17:47:28 12° NNE
Meteor 2-9 4.5 17:36:49 10° N 17:42:14 85° ENE 17:47:42 10° SSE
Meteor 2-17 Rocket 4.3 17:39:06 10° S 17:45:09 67° E 17:51:15 10° NNE
Timation 2 Rocket 4.5 17:40:34 10° S 17:45:09 35° SE 17:45:09 35° SE
Cosmos 1943 3.6 17:42:02 10° NNW 17:47:37 64° WSW 17:53:10 10° SSE
Cosmos 1812 Rocket 3.7 17:45:48 10° SSW 17:50:06 70° W 17:52:19 28° N
CZ-4B DEB 4.1 17:49:04 24° SE 17:52:28 65° ENE 17:57:58 10° N
Radarsat Rocket 4.4 17:46:59 10° S 17:52:43 62° WSW 17:58:43 10° NNW
SL-08 R/B 3.1 17:54:02 62° NNE 17:54:49 85° ESE 17:59:27 10° SSW
Cosmos 1190 Rocket 3.9 17:50:17 10° NNW 17:55:36 69° ENE 17:56:11 63° ESE
ADEOS 3.7 17:52:08 10° S 17:57:20 73° WSW 18:02:35 10° NNW
ADEOS Rocket 4.5 18:05:29 19° N 18:05:29 19° N 18:07:20 10° N
USA 307 3.6 17:59:47 10° WNW 18:03:12 43° SW 18:03:12 43° SW
USA 234 3.3 18:03:40 44° NE 18:05:55 73° NNW 18:12:26 10° WSW
ISS -1.4 18:05:58 10° W 18:08:24 21° SW 18:08:24 21° SW
PAYLOAD B 4.4 18:09:59 57° NNE 18:09:59 57° NNE 18:14:37 10° N
Cosmos 1553 Rocket 3.9 18:03:04 10° N 18:09:25 68° ENE 18:10:27 58° SE
Cosmos 1844 4.5 18:05:40 10° S 18:09:25 37° SSE 18:09:25 37° SSE
COSMO-SKYMED 1 3.6 18:11:55 30° NNW 18:13:34 44° WNW 18:17:41 10° SW
Cosmos 2344 3.3 18:06:18 10° SW 18:13:51 86° SE 18:16:07 49° NE
Cosmos 2026 Rocket 4.2 18:16:26 10° SSW 18:22:38 69° W 18:28:59 10° N
Meteor 1-26 Rocket 4.5 18:17:12 10° S 18:21:27 56° S 18:21:27 56° S
Lacrosse 5 3.3 18:22:21 10° SSW 18:24:56 28° SSW 18:24:56 28° SSW
SME Rocket 4.5 18:26:34 12° S 18:31:32 65° W 18:39:44 10° NNW
ATLAS CENTAUR R/B 4.4 18:38:54 10° WNW 18:43:48 37° SW 18:52:07 11° SSE
Cosmos 2263 Rocket 4.1 18:47:54 10° W 18:52:15 23° NW 18:53:56 20° NNW
Cosmos 1844 Rocket 3.8 18:47:16 10° SW 18:50:37 38° SW 18:50:37 38° SW
Lacrosse 4 Rocket 4.5 19:08:17 10° W 19:09:59 12° WSW 19:10:41 12° WSW
ATLAS 2AS CENTAUR R/B 3.4 19:12:23 10° NW 19:17:44 49° WNW 19:17:44 49° WNW
